Hourly Data Report for September 08, 2017

All times are specified in Local Standard Time (LST). Add 1 hour to adjust for Daylight Saving Time where and when it is observed.

EUREKA CLIMATE
NUNAVUT

79°59'21.000" N
85°56'02.000" W
10.00 m
2401199
71613
NEK

Download Data

Hourly Data (September 2017)
Hourly Data Report for September 8, 2017
Temp Definition
°C
Dew Point Temp Definition
°C
Rel Hum Definition
%
Wind Dir Definition
10's deg

Wind Spd Definition
km/h
Visibility Definition
km
Stn Press Definition
kPa
Hmdx Definition


Wind Chill Definition


Weather Definition


TIME
00:00 -10.2 -11.5 90 10 5   101.22   -13 LegendNANA
01:00 -8.2 -10.3 84 29 21   101.22   -16 LegendNANA
02:00 -10.7 -12.0 90 36 7   101.22   -15 LegendNANA
03:00 -11.1 -12.2 91 15 3   101.20   -13 LegendNANA
04:00 -11.4 -13.0 88 2 6   101.20   -15 LegendNANA
05:00 -12.4 -13.5 91 10 8   101.16   -17 LegendNANA
06:00 -12.3 -13.8 88 11 10   101.13   -18 LegendNANA
07:00 -13.0 -14.9 85 2 9   101.09   -18 LegendNANA
08:00 -11.8 -14.3 81 11 5   101.07   -15 LegendNANA
09:00 -11.6 -14.2 81 13 5   101.03   -15 LegendNANA
10:00 -11.1 -14.7 75 11 5   101.00   -14 LegendNANA
11:00 -11.3 -14.2 79 12 7   100.93   -16 LegendNANA
12:00 -10.4 -13.7 77 14 4   100.86   -13 LegendNANA
13:00 -10.1 -13.3 77 12 6   100.82   -14 LegendNANA
14:00 -9.6 -13.4 73 12 4   100.76   -12 LegendNANA
15:00 -8.6 -13.5 68 24 3   100.70   -10 LegendNANA
16:00 -7.3 -10.9 76 28 8   100.63   -11 LegendNANA
17:00 -6.9 -9.8 80 30 11   100.59   -12 LegendNANA
18:00 -8.5 -11.2 81 35 6   100.54   -12 LegendNANA
19:00 -8.7 -10.7 85 33 3   100.49   -10 LegendNANA
20:00 -10.8 -12.6 86 8 6   100.45   -14 LegendNANA
21:00 -11.6 -13.1 89 3 6   100.40   -15 LegendNANA
22:00 -12.6 -14.2 88 5 5   100.34   -16 LegendNANA
23:00 -11.9 -12.9 93 9 5   100.31   -15 LegendNANA

Notes on Data Quality.

Legend

  • E = Estimated
  • M = Missing
  • NA = Not Available
  • ‡ = Partner data that is not subject to review by the National Climate Archives
Date modified: